Tyche

operational
NORAD ID: 60496 Int'l Des: 2024-149 Owner: UKSC Country: UK
LEOCIRCULARRETROGRADESSO

Tycheについて

説明を読み込み中...

リアルタイム位置

3D地球を読み込み中...

次回通過

高度履歴

Altitude vs Time

uPlot chart will show altitude changes over time

軌道要素

1 60496U 24149AE 26061.56957762 .00006823 00000-0 26778-3 0 9999
2 60496 97.3825 140.7965 0001826 251.7980 108.3060 15.26042451 85643
Epoch: Mar 2, 2026 • Age: 29 hours

現在のステータス

高度 490.8 km
速度 7.62 km/s
衛星直下点 4.47°N, 101.54°W
打ち上げ日 Aug 16, 2024
運用期間 1.5 years
タイプ other

技術仕様

分類 Payload
質量 150.00 kg
乾燥質量 150.00 kg
総質量 150.00 kg
長さ 1.00 m
直径 0.60 m
スパン 1.00 m
形状 Box
製造者 SSTL
バスタイプ Carbonite+
フェーズステータス In Orbit
所有者/国 UKSC/UK

大規模コンステレーション

Loading constellations...